TimeEST,TemperatureF,Dew PointF,Humidity,Sea Level PressureIn,VisibilityMPH,Wind Direction,Wind SpeedMPH,Gust SpeedMPH,PrecipitationIn,Events,Conditions,WindDirDegrees,DateUTC
12:14 AM,23.9,19.9,85,30.36,10.0,Calm,Calm,-,N/A,,Clear,0,2012-12-06 05:14:00
12:35 AM,24.6,20.7,85,30.35,10.0,Calm,Calm,-,N/A,,Clear,0,2012-12-06 05:35:00
12:54 AM,24.3,20.8,87,30.33,10.0,Calm,Calm,-,N/A,,Clear,0,2012-12-06 05:54:00
1:14 AM,22.8,19.8,88,30.33,10.0,South,3.5,-,N/A,,Clear,170,2012-12-06 06:14:00
1:35 AM,25.2,21.9,87,30.32,10.0,SSE,3.5,-,N/A,,Clear,150,2012-12-06 06:35:00
1:54 AM,26.6,21.9,82,30.31,10.0,SE,4.6,-,N/A,,Clear,140,2012-12-06 06:54:00
2:14 AM,26.1,21.4,82,30.32,10.0,SSE,4.6,-,N/A,,Clear,150,2012-12-06 07:14:00
2:35 AM,26.1,21.7,84,30.32,10.0,SSE,4.6,-,N/A,,Clear,160,2012-12-06 07:35:00
2:54 AM,26.4,22.1,84,30.32,10.0,SSE,4.6,-,N/A,,Clear,160,2012-12-06 07:54:00
3:14 AM,26.6,22.1,83,30.32,10.0,Calm,Calm,-,N/A,,Clear,0,2012-12-06 08:14:00
3:34 AM,26.6,22.1,83,30.32,10.0,Calm,Calm,-,N/A,,Clear,0,2012-12-06 08:34:00
3:54 AM,27.0,22.1,82,30.31,10.0,SSE,3.5,-,N/A,,Clear,160,2012-12-06 08:54:00
4:15 AM,27.5,23.0,83,30.29,10.0,SSE,4.6,-,N/A,,Clear,150,2012-12-06 09:15:00
4:35 AM,27.9,23.4,83,30.29,10.0,SSE,3.5,-,N/A,,Clear,160,2012-12-06 09:35:00
4:54 AM,27.9,23.5,84,30.29,10.0,SSE,3.5,-,N/A,,Clear,160,2012-12-06 09:54:00
5:15 AM,28.2,23.9,84,30.30,10.0,South,4.6,-,N/A,,Clear,170,2012-12-06 10:15:00
5:35 AM,28.4,24.3,84,30.29,10.0,South,4.6,-,N/A,,Clear,170,2012-12-06 10:35:00
5:54 AM,28.4,24.3,84,30.29,10.0,SSW,6.9,-,N/A,,Clear,200,2012-12-06 10:54:00
6:15 AM,28.4,24.3,84,30.28,10.0,South,6.9,-,N/A,,Clear,170,2012-12-06 11:15:00
6:34 AM,28.4,24.4,85,30.27,10.0,SSE,6.9,-,N/A,,Clear,160,2012-12-06 11:34:00
7:15 AM,28.2,23.9,84,30.26,10.0,SSE,8.1,-,N/A,,Clear,160,2012-12-06 12:15:00
7:34 AM,28.2,23.7,83,30.25,10.0,SSE,6.9,-,N/A,,Clear,160,2012-12-06 12:34:00
7:54 AM,28.0,23.7,84,30.25,10.0,SSE,5.8,-,N/A,,Clear,160,2012-12-06 12:54:00
8:15 AM,28.4,23.9,83,30.24,10.0,SSE,5.8,-,N/A,,Clear,160,2012-12-06 13:15:00
8:34 AM,28.8,24.3,83,30.23,10.0,SSE,8.1,-,N/A,,Clear,160,2012-12-06 13:34:00
8:54 AM,29.1,24.6,83,30.22,10.0,SSE,8.1,-,N/A,,Clear,160,2012-12-06 13:54:00
9:15 AM,30.0,25.3,83,30.20,10.0,SSE,10.4,-,N/A,,Clear,160,2012-12-06 14:15:00
9:34 AM,30.7,25.9,82,30.20,10.0,SSE,10.4,-,N/A,,Clear,160,2012-12-06 14:34:00
9:54 AM,31.5,26.6,82,30.20,10.0,South,11.5,-,N/A,,Clear,170,2012-12-06 14:54:00
10:15 AM,32.0,26.8,81,30.19,10.0,SSE,9.2,17.3,N/A,,Clear,160,2012-12-06 15:15:00
10:34 AM,32.4,27.5,82,30.19,10.0,South,13.8,19.6,N/A,,Clear,170,2012-12-06 15:34:00
10:55 AM,32.9,27.7,81,30.17,10.0,South,15.0,19.6,N/A,,Clear,170,2012-12-06 15:55:00
11:15 AM,33.8,28.4,81,30.17,10.0,South,13.8,-,N/A,,Scattered Clouds,170,2012-12-06 16:15:00
11:34 AM,34.2,28.8,81,30.15,10.0,South,12.7,19.6,N/A,,Scattered Clouds,180,2012-12-06 16:34:00
11:55 AM,34.2,28.9,81,30.13,10.0,South,13.8,23.0,N/A,,Mostly Cloudy,170,2012-12-06 16:55:00
12:15 PM,34.7,29.3,81,30.12,10.0,South,13.8,-,N/A,,Mostly Cloudy,190,2012-12-06 17:15:00
12:34 PM,35.1,29.7,81,30.11,10.0,South,16.1,19.6,N/A,,Mostly Cloudy,190,2012-12-06 17:34:00
12:55 PM,35.1,29.7,81,30.10,10.0,South,16.1,-,N/A,,Overcast,190,2012-12-06 17:55:00
1:15 PM,35.2,30.0,81,30.10,10.0,South,16.1,20.7,N/A,,Overcast,190,2012-12-06 18:15:00
1:34 PM,35.6,30.6,82,30.08,10.0,SSW,10.4,-,N/A,,Overcast,200,2012-12-06 18:34:00
1:55 PM,35.6,30.6,82,30.07,10.0,SSW,11.5,-,N/A,,Mostly Cloudy,200,2012-12-06 18:55:00
2:15 PM,36.5,31.1,81,30.07,10.0,SSW,12.7,-,N/A,,Scattered Clouds,200,2012-12-06 19:15:00
2:34 PM,37.2,31.1,79,30.07,10.0,South,11.5,-,N/A,,Scattered Clouds,190,2012-12-06 19:34:00
2:55 PM,36.5,30.7,80,30.06,10.0,South,11.5,-,N/A,,Scattered Clouds,180,2012-12-06 19:55:00
3:15 PM,36.5,30.9,80,30.04,10.0,South,11.5,-,N/A,,Clear,170,2012-12-06 20:15:00
3:35 PM,36.5,30.7,80,30.03,10.0,South,12.7,-,N/A,,Clear,170,2012-12-06 20:35:00
3:55 PM,36.5,30.9,80,30.03,10.0,SSE,9.2,-,N/A,,Scattered Clouds,160,2012-12-06 20:55:00
4:14 PM,36.0,30.9,82,30.03,10.0,SSE,8.1,-,N/A,,Clear,160,2012-12-06 21:14:00
4:35 PM,35.6,30.9,83,30.01,10.0,SSE,9.2,-,N/A,,Mostly Cloudy,160,2012-12-06 21:35:00
4:55 PM,35.6,31.1,84,30.00,10.0,South,8.1,-,N/A,,Overcast,170,2012-12-06 21:55:00
5:14 PM,35.6,31.1,84,30.01,10.0,South,9.2,-,N/A,,Mostly Cloudy,180,2012-12-06 22:14:00
5:35 PM,35.6,31.1,84,30.01,10.0,South,10.4,-,N/A,,Overcast,180,2012-12-06 22:35:00
5:55 PM,35.6,30.6,82,29.99,10.0,SSE,10.4,-,N/A,,Overcast,160,2012-12-06 22:55:00
6:14 PM,35.4,30.7,83,29.98,10.0,SSE,11.5,16.1,N/A,,Overcast,160,2012-12-06 23:14:00
6:35 PM,35.2,30.7,84,29.98,10.0,SSE,11.5,-,N/A,,Overcast,160,2012-12-06 23:35:00
6:54 PM,35.1,30.7,84,29.99,10.0,South,11.5,-,N/A,,Overcast,180,2012-12-06 23:54:00
7:15 PM,34.9,30.7,85,29.97,10.0,South,12.7,-,N/A,,Mostly Cloudy,170,2012-12-07 00:15:00
7:35 PM,34.9,30.7,85,29.97,10.0,SSE,10.4,-,N/A,,Overcast,160,2012-12-07 00:35:00
7:55 PM,34.9,30.7,85,29.98,10.0,South,10.4,-,N/A,,Overcast,180,2012-12-07 00:55:00
8:15 PM,35.1,30.7,84,29.98,10.0,South,11.5,-,N/A,,Overcast,180,2012-12-07 01:15:00
8:35 PM,35.1,30.9,85,29.97,10.0,South,12.7,-,N/A,,Overcast,180,2012-12-07 01:35:00
8:55 PM,35.1,30.9,85,29.97,10.0,South,9.2,-,N/A,,Overcast,180,2012-12-07 01:55:00
9:35 PM,35.1,31.1,85,29.95,10.0,South,10.4,-,N/A,,Overcast,190,2012-12-07 02:35:00
9:55 PM,35.2,31.1,85,29.95,10.0,South,8.1,-,N/A,,Mostly Cloudy,190,2012-12-07 02:55:00
10:15 PM,35.2,31.1,85,29.95,10.0,South,10.4,-,N/A,,Overcast,190,2012-12-07 03:15:00
10:35 PM,35.6,31.1,84,29.95,10.0,SSW,9.2,-,N/A,,Overcast,200,2012-12-07 03:35:00
10:54 PM,35.8,31.1,83,29.94,10.0,South,10.4,-,N/A,,Overcast,190,2012-12-07 03:54:00
11:14 PM,35.6,31.1,84,29.93,10.0,South,8.1,-,N/A,,Overcast,190,2012-12-07 04:14:00
11:34 PM,35.6,31.1,84,29.93,10.0,South,12.7,-,N/A,,Overcast,190,2012-12-07 04:34:00
11:54 PM,35.8,31.1,83,29.92,10.0,South,11.5,-,N/A,,Overcast,190,2012-12-07 04:54:00